Location: Central Falls
(41.8900°N, 71.3929°W)
Time: 03:22:01
(UTC+00:00)

Vanguard 2 Rocket - Pass Details

Date: 10 December 2023
Orbit: 555 x 3309 km, 32.9° (Epoch: 01 March)

Event Time Altitude Azimuth Distance (km) Brightness Sun altitude
Rises 23:21:33 0° 279° (W) 7,062 12.6 -22.9°
Reaches altitude 10° 23:26:34 10° 273° (W) 6,191 12.1 -23.8°
Maximum altitude 23:44:08 40° 214° (SW) 4,107 10.4 -27.0°
Drops below altitude 10° 23:58:51 10° 152° (SSE) 5,197 10.5 -29.7°
Sets 00:02:40 0° 145° (SE) 5,872 10.8 -30.4°
